Year,Month,Day,Hour,Minute,Value (Times are PST for temperature in C)
2009,05,25,00,00,9.20
2009,05,25,00,01,9.20
2009,05,25,00,02,9.20
2009,05,25,00,03,9.20
2009,05,25,00,04,9.20
2009,05,25,00,05,9.20
2009,05,25,00,06,9.20
2009,05,25,00,07,9.10
2009,05,25,00,08,9.10
2009,05,25,00,09,9.10
2009,05,25,00,10,9.10
2009,05,25,00,11,9.10
2009,05,25,00,12,9.10
2009,05,25,00,13,9.10
2009,05,25,00,14,9.10
2009,05,25,00,15,9.10
2009,05,25,00,16,9.00
2009,05,25,00,17,9.00
2009,05,25,00,18,9.00
2009,05,25,00,19,9.00
2009,05,25,00,20,9.00
2009,05,25,00,21,9.00
2009,05,25,00,22,9.00
2009,05,25,00,23,9.00
2009,05,25,00,24,9.00
2009,05,25,00,25,9.00
2009,05,25,00,26,9.00
2009,05,25,00,27,9.00
2009,05,25,00,28,9.00
2009,05,25,00,29,9.00
2009,05,25,00,30,9.00
2009,05,25,00,31,8.90
2009,05,25,00,32,8.90
2009,05,25,00,33,8.90
2009,05,25,00,34,8.90
2009,05,25,00,35,8.90
2009,05,25,00,36,8.80
2009,05,25,00,37,8.80
2009,05,25,00,38,8.80
2009,05,25,00,39,8.80
2009,05,25,00,40,8.80
2009,05,25,00,41,8.80
2009,05,25,00,42,8.80
2009,05,25,00,43,8.80
2009,05,25,00,44,8.80
2009,05,25,00,45,8.80
2009,05,25,00,46,8.80
2009,05,25,00,47,8.80
2009,05,25,00,48,8.80
2009,05,25,00,49,8.80
2009,05,25,00,50,8.70
2009,05,25,00,51,8.70
2009,05,25,00,52,8.70
2009,05,25,00,53,8.70
2009,05,25,00,54,8.70
2009,05,25,00,55,8.70
2009,05,25,00,56,8.70
2009,05,25,00,57,8.60
2009,05,25,00,58,8.60
2009,05,25,00,59,8.60
2009,05,25,01,00,8.60
2009,05,25,01,01,8.60
2009,05,25,01,02,8.50
2009,05,25,01,03,8.50
2009,05,25,01,04,8.50
2009,05,25,01,05,8.50
2009,05,25,01,06,8.50
2009,05,25,01,07,8.50
2009,05,25,01,08,8.50
2009,05,25,01,09,8.50
2009,05,25,01,10,8.50
2009,05,25,01,11,8.50
2009,05,25,01,12,8.50
2009,05,25,01,13,8.50
2009,05,25,01,14,8.50
2009,05,25,01,15,8.40
2009,05,25,01,16,8.40
2009,05,25,01,17,8.40
2009,05,25,01,18,8.40
2009,05,25,01,19,8.40
2009,05,25,01,20,8.40
2009,05,25,01,21,8.40
2009,05,25,01,22,8.40
2009,05,25,01,23,8.40
2009,05,25,01,24,8.40
2009,05,25,01,25,8.40
2009,05,25,01,26,8.40
2009,05,25,01,27,8.40
2009,05,25,01,28,8.40
2009,05,25,01,29,8.40
2009,05,25,01,30,8.30
2009,05,25,01,31,8.30
2009,05,25,01,32,8.30
2009,05,25,01,33,8.20
2009,05,25,01,34,8.20
2009,05,25,01,35,8.20
2009,05,25,01,36,8.20
2009,05,25,01,37,8.10
2009,05,25,01,38,8.10
2009,05,25,01,39,8.00
2009,05,25,01,40,8.00
2009,05,25,01,41,7.90
2009,05,25,01,42,7.90
2009,05,25,01,43,7.90
2009,05,25,01,44,7.90
2009,05,25,01,45,7.90
2009,05,25,01,46,7.90
2009,05,25,01,47,7.80
2009,05,25,01,48,7.80
2009,05,25,01,49,7.80
2009,05,25,01,50,7.80
2009,05,25,01,51,7.80
2009,05,25,01,52,7.80
2009,05,25,01,53,7.70
2009,05,25,01,54,7.70
2009,05,25,01,55,7.70
2009,05,25,01,56,7.70
2009,05,25,01,57,7.70
2009,05,25,01,58,7.70
2009,05,25,01,59,7.80
2009,05,25,02,00,7.80
2009,05,25,02,01,7.80
2009,05,25,02,02,7.80
2009,05,25,02,03,7.80
2009,05,25,02,04,7.80
2009,05,25,02,05,7.80
2009,05,25,02,06,7.80
2009,05,25,02,07,7.80
2009,05,25,02,08,7.80
2009,05,25,02,09,7.80
2009,05,25,02,10,7.80
2009,05,25,02,11,7.80
2009,05,25,02,12,7.80
2009,05,25,02,13,7.80
2009,05,25,02,14,7.80
2009,05,25,02,15,7.80
2009,05,25,02,16,7.80
2009,05,25,02,17,7.80
2009,05,25,02,18,7.80
2009,05,25,02,19,7.90
2009,05,25,02,20,7.90
2009,05,25,02,21,7.90
2009,05,25,02,22,7.80
2009,05,25,02,23,7.80
2009,05,25,02,24,7.80
2009,05,25,02,25,7.80
2009,05,25,02,26,7.80
2009,05,25,02,27,7.80
2009,05,25,02,28,7.80
2009,05,25,02,29,7.80
2009,05,25,02,30,7.80
2009,05,25,02,31,7.70
2009,05,25,02,32,7.70
2009,05,25,02,33,7.70
2009,05,25,02,34,7.70
2009,05,25,02,35,7.60
2009,05,25,02,36,7.60
2009,05,25,02,37,7.60
2009,05,25,02,38,7.60
2009,05,25,02,39,7.60
2009,05,25,02,40,7.60
2009,05,25,02,41,7.60
2009,05,25,02,42,7.50
2009,05,25,02,43,7.50
2009,05,25,02,44,7.40
2009,05,25,02,45,7.40
2009,05,25,02,46,7.30
2009,05,25,02,47,7.30
2009,05,25,02,48,7.30
2009,05,25,02,49,7.30
2009,05,25,02,50,7.20
2009,05,25,02,51,7.20
2009,05,25,02,52,7.20
2009,05,25,02,53,7.10
2009,05,25,02,54,7.10
2009,05,25,02,55,7.10
2009,05,25,02,56,7.00
2009,05,25,02,57,7.00
2009,05,25,02,58,7.00
2009,05,25,02,59,7.00
2009,05,25,03,00,7.00
2009,05,25,03,01,6.90
2009,05,25,03,02,6.90
2009,05,25,03,03,6.90
2009,05,25,03,04,6.90
2009,05,25,03,05,6.80
2009,05,25,03,06,6.80
2009,05,25,03,07,6.80
2009,05,25,03,08,6.80
2009,05,25,03,09,6.80
2009,05,25,03,10,6.80
2009,05,25,03,11,6.80
2009,05,25,03,12,6.80
2009,05,25,03,13,6.80
2009,05,25,03,14,6.70
2009,05,25,03,15,6.70
2009,05,25,03,16,6.70
2009,05,25,03,17,6.60
2009,05,25,03,18,6.60
2009,05,25,03,19,6.60
2009,05,25,03,20,6.60
2009,05,25,03,21,6.50
2009,05,25,03,22,6.40
2009,05,25,03,23,6.40
2009,05,25,03,24,6.40
2009,05,25,03,25,6.40
2009,05,25,03,26,6.30
2009,05,25,03,27,6.30
2009,05,25,03,28,6.30
2009,05,25,03,29,6.30
2009,05,25,03,30,6.30
2009,05,25,03,31,6.20
2009,05,25,03,32,6.20
2009,05,25,03,33,6.20
2009,05,25,03,34,6.20
2009,05,25,03,35,6.20
2009,05,25,03,36,6.20
2009,05,25,03,37,6.10
2009,05,25,03,38,6.10
2009,05,25,03,39,6.10
2009,05,25,03,40,6.10
2009,05,25,03,41,6.10
2009,05,25,03,42,6.10
2009,05,25,03,43,6.10
2009,05,25,03,44,6.00
2009,05,25,03,45,6.00
2009,05,25,03,46,6.00
2009,05,25,03,47,6.00
2009,05,25,03,48,6.00
2009,05,25,03,49,5.90
2009,05,25,03,50,5.90
2009,05,25,03,51,5.90
2009,05,25,03,52,5.90
2009,05,25,03,53,5.90
2009,05,25,03,54,5.90
2009,05,25,03,55,6.00
2009,05,25,03,56,6.00
2009,05,25,03,57,6.00
2009,05,25,03,58,6.00
2009,05,25,03,59,6.00
2009,05,25,04,00,6.00
2009,05,25,04,01,6.00
2009,05,25,04,02,6.00
2009,05,25,04,03,6.10
2009,05,25,04,04,6.10
2009,05,25,04,05,6.10
2009,05,25,04,06,6.20
2009,05,25,04,07,6.30
2009,05,25,04,08,6.30
2009,05,25,04,09,6.40
2009,05,25,04,10,6.40
2009,05,25,04,11,6.40
2009,05,25,04,12,6.40
2009,05,25,04,13,6.40
2009,05,25,04,14,6.40
2009,05,25,04,15,6.40
2009,05,25,04,16,6.40
2009,05,25,04,17,6.40
2009,05,25,04,18,6.40
2009,05,25,04,19,6.40
2009,05,25,04,20,6.40
2009,05,25,04,21,6.40
2009,05,25,04,22,6.40
2009,05,25,04,23,6.40
2009,05,25,04,24,6.40
2009,05,25,04,25,6.40
2009,05,25,04,26,6.40
2009,05,25,04,27,6.40
2009,05,25,04,28,6.40
2009,05,25,04,29,6.40
2009,05,25,04,30,6.30
2009,05,25,04,31,6.30
2009,05,25,04,32,6.30
2009,05,25,04,33,6.20
2009,05,25,04,34,6.20
2009,05,25,04,35,6.20
2009,05,25,04,36,6.10
2009,05,25,04,37,6.10
2009,05,25,04,38,6.00
2009,05,25,04,39,6.00
2009,05,25,04,40,5.90
2009,05,25,04,41,5.80
2009,05,25,04,42,5.80
2009,05,25,04,43,5.70
2009,05,25,04,44,5.70
2009,05,25,04,45,5.70
2009,05,25,04,46,5.60
2009,05,25,04,47,5.60
2009,05,25,04,48,5.50
2009,05,25,04,49,5.50
2009,05,25,04,50,5.50
2009,05,25,04,51,5.40
2009,05,25,04,52,5.40
2009,05,25,04,53,5.40
2009,05,25,04,54,5.30
2009,05,25,04,55,5.30
2009,05,25,04,56,5.30
2009,05,25,04,57,5.30
2009,05,25,04,58,5.30
2009,05,25,04,59,5.30
2009,05,25,05,00,5.30
2009,05,25,05,01,5.20
2009,05,25,05,02,5.20
2009,05,25,05,03,5.20
2009,05,25,05,04,5.20
2009,05,25,05,05,5.20
2009,05,25,05,06,5.10
2009,05,25,05,07,5.10
2009,05,25,05,08,5.10
2009,05,25,05,09,5.10
2009,05,25,05,10,5.10
2009,05,25,05,11,5.10
2009,05,25,05,12,5.10
2009,05,25,05,13,5.10
2009,05,25,05,14,5.10
2009,05,25,05,15,5.10
2009,05,25,05,16,5.10
2009,05,25,05,17,5.10
2009,05,25,05,18,5.10
2009,05,25,05,19,4.90
2009,05,25,05,20,4.90
2009,05,25,05,21,4.90
2009,05,25,05,22,4.90
2009,05,25,05,23,4.90
2009,05,25,05,24,4.90
2009,05,25,05,25,4.90
2009,05,25,05,26,4.90
2009,05,25,05,27,4.90
2009,05,25,05,28,4.90
2009,05,25,05,29,4.90
2009,05,25,05,30,4.90
2009,05,25,05,31,4.90
2009,05,25,05,32,4.90
2009,05,25,05,33,4.90
2009,05,25,05,34,4.90
2009,05,25,05,35,4.80
2009,05,25,05,36,4.80
2009,05,25,05,37,4.80
2009,05,25,05,38,4.80
2009,05,25,05,39,4.80
2009,05,25,05,40,4.80
2009,05,25,05,41,4.80
2009,05,25,05,42,4.80
2009,05,25,05,43,4.80
2009,05,25,05,44,4.80
2009,05,25,05,45,4.80
2009,05,25,05,46,4.80
2009,05,25,05,47,4.70
2009,05,25,05,48,4.70
2009,05,25,05,49,4.70
2009,05,25,05,50,4.70
2009,05,25,05,51,4.70
2009,05,25,05,52,4.70
2009,05,25,05,53,4.70
2009,05,25,05,54,4.70
2009,05,25,05,55,4.70
2009,05,25,05,56,4.70
2009,05,25,05,57,4.70
2009,05,25,05,58,4.70
2009,05,25,05,59,4.70
2009,05,25,06,00,4.70
2009,05,25,06,01,4.80
2009,05,25,06,02,4.80
2009,05,25,06,03,4.80
2009,05,25,06,04,4.80
2009,05,25,06,05,4.80
2009,05,25,06,06,4.80
2009,05,25,06,07,4.80
2009,05,25,06,08,4.80
2009,05,25,06,09,4.90
2009,05,25,06,10,4.90
2009,05,25,06,11,4.90
2009,05,25,06,12,4.90
2009,05,25,06,13,4.90
2009,05,25,06,14,4.90
2009,05,25,06,15,4.90
2009,05,25,06,16,4.90
2009,05,25,06,17,4.90
2009,05,25,06,18,4.90
2009,05,25,06,19,4.90
2009,05,25,06,20,4.90
2009,05,25,06,21,4.90
2009,05,25,06,22,4.90
2009,05,25,06,23,4.90
2009,05,25,06,24,4.90
2009,05,25,06,25,4.90
2009,05,25,06,26,4.90
2009,05,25,06,27,5.00
2009,05,25,06,28,5.10
2009,05,25,06,29,5.10
2009,05,25,06,30,5.10
2009,05,25,06,31,5.10
2009,05,25,06,32,5.10
2009,05,25,06,33,5.10
2009,05,25,06,34,5.10
2009,05,25,06,35,5.20
2009,05,25,06,36,5.20
2009,05,25,06,37,5.20
2009,05,25,06,38,5.20
2009,05,25,06,39,5.20
2009,05,25,06,40,5.20
2009,05,25,06,41,5.30
2009,05,25,06,42,5.30
2009,05,25,06,43,5.30
2009,05,25,06,44,5.30
2009,05,25,06,45,5.30
2009,05,25,06,46,5.30
2009,05,25,06,47,5.30
2009,05,25,06,48,5.40
2009,05,25,06,49,5.40
2009,05,25,06,50,5.40
2009,05,25,06,51,5.50
2009,05,25,06,52,5.50
2009,05,25,06,53,5.50
2009,05,25,06,54,5.50
2009,05,25,06,55,5.60
2009,05,25,06,56,5.60
2009,05,25,06,57,5.70
2009,05,25,06,58,5.70
2009,05,25,06,59,5.70
2009,05,25,07,00,5.80
2009,05,25,07,01,5.90
2009,05,25,07,02,5.90
2009,05,25,07,03,5.90
2009,05,25,07,04,6.00
2009,05,25,07,05,6.00
2009,05,25,07,06,6.10
2009,05,25,07,07,6.20
2009,05,25,07,08,6.20
2009,05,25,07,09,6.20
2009,05,25,07,10,6.30
2009,05,25,07,11,6.30
2009,05,25,07,12,6.40
2009,05,25,07,13,6.40
2009,05,25,07,14,6.50
2009,05,25,07,15,6.60
2009,05,25,07,16,6.60
2009,05,25,07,17,6.70
2009,05,25,07,18,6.80
2009,05,25,07,19,6.80
2009,05,25,07,20,6.90
2009,05,25,07,21,7.00
2009,05,25,07,22,7.00
2009,05,25,07,23,7.10
2009,05,25,07,24,7.20
2009,05,25,07,25,7.30
2009,05,25,07,26,7.30
2009,05,25,07,27,7.40
2009,05,25,07,28,7.50
2009,05,25,07,29,7.60
2009,05,25,07,30,7.60
2009,05,25,07,31,7.70
2009,05,25,07,32,7.80
2009,05,25,07,33,7.80
2009,05,25,07,34,7.90
2009,05,25,07,35,8.00
2009,05,25,07,36,8.00
2009,05,25,07,37,8.10
2009,05,25,07,38,8.20
2009,05,25,07,39,8.30
2009,05,25,07,40,8.40
2009,05,25,07,41,8.50
2009,05,25,07,42,8.60
2009,05,25,07,43,8.70
2009,05,25,07,44,8.70
2009,05,25,07,45,8.80
2009,05,25,07,46,8.90
2009,05,25,07,47,9.00
2009,05,25,07,48,9.10
2009,05,25,07,49,9.20
2009,05,25,07,50,9.20
2009,05,25,07,51,9.20
2009,05,25,07,52,9.30
2009,05,25,07,53,9.40
2009,05,25,07,54,9.40
2009,05,25,07,55,9.50
2009,05,25,07,56,9.60
2009,05,25,07,57,9.70
2009,05,25,07,58,9.70
2009,05,25,07,59,9.70
2009,05,25,08,00,9.70
2009,05,25,08,01,9.70
2009,05,25,08,02,9.70
2009,05,25,08,03,9.80
2009,05,25,08,04,9.80
2009,05,25,08,05,9.80
2009,05,25,08,06,9.80
2009,05,25,08,07,9.90
2009,05,25,08,08,9.90
2009,05,25,08,09,9.90
2009,05,25,08,10,10.00
2009,05,25,08,11,10.10
2009,05,25,08,12,10.10
2009,05,25,08,13,10.20
2009,05,25,08,14,10.20
2009,05,25,08,15,10.30
2009,05,25,08,16,10.30
2009,05,25,08,17,10.30
2009,05,25,08,18,10.40
2009,05,25,08,19,10.40
2009,05,25,08,20,10.40
2009,05,25,08,21,10.40
2009,05,25,08,22,10.30
2009,05,25,08,23,10.40
2009,05,25,08,24,10.40
2009,05,25,08,25,10.40
2009,05,25,08,26,10.50
2009,05,25,08,27,10.60
2009,05,25,08,28,10.60
2009,05,25,08,29,10.60
2009,05,25,08,30,10.60
2009,05,25,08,31,10.60
2009,05,25,08,32,10.60
2009,05,25,08,33,10.60
2009,05,25,08,34,10.70
2009,05,25,08,35,10.70
2009,05,25,08,36,10.80
2009,05,25,08,37,10.80
2009,05,25,08,38,10.80
2009,05,25,08,39,10.80
2009,05,25,08,40,10.80
2009,05,25,08,41,10.80
2009,05,25,08,42,10.80
2009,05,25,08,43,10.80
2009,05,25,08,44,10.90
2009,05,25,08,45,10.90
2009,05,25,08,46,11.00
2009,05,25,08,47,11.10
2009,05,25,08,48,11.10
2009,05,25,08,49,11.10
2009,05,25,08,50,11.10
2009,05,25,08,51,11.20
2009,05,25,08,52,11.20
2009,05,25,08,53,11.20
2009,05,25,08,54,11.10
2009,05,25,08,55,11.10
2009,05,25,08,56,11.20
2009,05,25,08,57,11.20
2009,05,25,08,58,11.20
2009,05,25,08,59,11.20
2009,05,25,09,00,11.20
2009,05,25,09,01,11.20
2009,05,25,09,02,11.20
2009,05,25,09,03,11.30
2009,05,25,09,04,11.30
2009,05,25,09,05,11.30
2009,05,25,09,06,11.30
2009,05,25,09,07,11.30
2009,05,25,09,08,11.40
2009,05,25,09,09,11.40
2009,05,25,09,10,11.40
2009,05,25,09,11,11.60
2009,05,25,09,12,11.60
2009,05,25,09,13,11.60
2009,05,25,09,14,11.50
2009,05,25,09,15,11.40
2009,05,25,09,16,11.40
2009,05,25,09,17,11.40
2009,05,25,09,18,11.40
2009,05,25,09,19,11.40
2009,05,25,09,20,11.40
2009,05,25,09,21,11.40
2009,05,25,09,22,11.40
2009,05,25,09,23,11.40
2009,05,25,09,24,11.40
2009,05,25,09,25,11.40
2009,05,25,09,26,11.40
2009,05,25,09,27,11.50
2009,05,25,09,28,11.60
2009,05,25,09,29,11.60
2009,05,25,09,30,11.60
2009,05,25,09,31,11.60
2009,05,25,09,32,11.60
2009,05,25,09,33,11.60
2009,05,25,09,34,11.60
2009,05,25,09,35,11.60
2009,05,25,09,36,11.70
2009,05,25,09,37,11.80
2009,05,25,09,38,11.80
2009,05,25,09,39,11.80
2009,05,25,09,40,11.80
2009,05,25,09,41,11.90
2009,05,25,09,42,11.90
2009,05,25,09,43,12.00
2009,05,25,09,44,12.00
2009,05,25,09,45,12.10
2009,05,25,09,46,12.10
2009,05,25,09,47,12.10
2009,05,25,09,48,12.10
2009,05,25,09,49,12.10
2009,05,25,09,50,12.10
2009,05,25,09,51,12.10
2009,05,25,09,52,12.00
2009,05,25,09,53,12.00
2009,05,25,09,54,12.00
2009,05,25,09,55,11.90
2009,05,25,09,56,11.90
2009,05,25,09,57,11.90
2009,05,25,09,58,11.90
2009,05,25,09,59,11.90
2009,05,25,10,00,12.00
2009,05,25,10,01,12.00
2009,05,25,10,02,12.00
2009,05,25,10,03,12.00
2009,05,25,10,04,12.00
2009,05,25,10,05,11.90
2009,05,25,10,06,12.00
2009,05,25,10,07,12.10
2009,05,25,10,08,12.00
2009,05,25,10,09,12.00
2009,05,25,10,10,12.10
2009,05,25,10,11,12.10
2009,05,25,10,12,12.00
2009,05,25,10,13,12.10
2009,05,25,10,14,12.10
2009,05,25,10,15,12.10
2009,05,25,10,16,12.10
2009,05,25,10,17,12.10
2009,05,25,10,18,12.20
2009,05,25,10,19,12.20
2009,05,25,10,20,12.30
2009,05,25,10,21,12.30
2009,05,25,10,22,12.30
2009,05,25,10,23,12.30
2009,05,25,10,24,12.30
2009,05,25,10,25,12.30
2009,05,25,10,26,12.30
2009,05,25,10,27,12.30
2009,05,25,10,28,12.30
2009,05,25,10,29,12.20
2009,05,25,10,30,12.30
2009,05,25,10,31,12.20
2009,05,25,10,32,12.10
2009,05,25,10,33,12.10
2009,05,25,10,34,12.20
2009,05,25,10,35,12.20
2009,05,25,10,36,12.30
2009,05,25,10,37,12.30
2009,05,25,10,38,12.30
2009,05,25,10,39,12.30
2009,05,25,10,40,12.40
2009,05,25,10,41,12.40
2009,05,25,10,42,12.40
2009,05,25,10,43,12.40
2009,05,25,10,44,12.50
2009,05,25,10,45,12.60
2009,05,25,10,46,12.70
2009,05,25,10,47,12.80
2009,05,25,10,48,12.80
2009,05,25,10,49,12.80
2009,05,25,10,50,12.80
2009,05,25,10,51,12.90
2009,05,25,10,52,13.00
2009,05,25,10,53,13.10
2009,05,25,10,54,13.10
2009,05,25,10,55,13.10
2009,05,25,10,56,13.20
2009,05,25,10,57,13.20
2009,05,25,10,58,13.30
2009,05,25,10,59,13.30
2009,05,25,11,00,13.20
2009,05,25,11,01,13.10
2009,05,25,11,02,13.00
2009,05,25,11,03,13.00
2009,05,25,11,04,13.00
2009,05,25,11,05,13.00
2009,05,25,11,06,13.00
2009,05,25,11,07,13.00
2009,05,25,11,08,13.00
2009,05,25,11,09,13.00
2009,05,25,11,10,13.00
2009,05,25,11,11,13.00
2009,05,25,11,12,13.10
2009,05,25,11,13,13.10
2009,05,25,11,14,13.10
2009,05,25,11,15,13.20
2009,05,25,11,16,13.20
2009,05,25,11,17,13.10
2009,05,25,11,18,13.20
2009,05,25,11,19,13.30
2009,05,25,11,20,13.40
2009,05,25,11,21,13.50
2009,05,25,11,22,13.50
2009,05,25,11,23,13.60
2009,05,25,11,24,13.60
2009,05,25,11,25,13.60
2009,05,25,11,26,13.60
2009,05,25,11,27,13.60
2009,05,25,11,28,13.60
2009,05,25,11,29,13.50
2009,05,25,11,30,13.60
2009,05,25,11,31,13.70
2009,05,25,11,32,13.70
2009,05,25,11,33,13.70
2009,05,25,11,34,13.70
2009,05,25,11,35,13.70
2009,05,25,11,36,13.70
2009,05,25,11,37,13.80
2009,05,25,11,38,13.90
2009,05,25,11,39,14.00
2009,05,25,11,40,14.10
2009,05,25,11,41,14.10
2009,05,25,11,42,14.20
2009,05,25,11,43,14.30
2009,05,25,11,44,14.50
2009,05,25,11,45,14.60
2009,05,25,11,46,14.70
2009,05,25,11,47,14.80
2009,05,25,11,48,14.80
2009,05,25,11,49,14.80
2009,05,25,11,50,14.90
2009,05,25,11,51,14.90
2009,05,25,11,52,15.00
2009,05,25,11,53,15.00
2009,05,25,11,54,15.00
2009,05,25,11,55,15.00
2009,05,25,11,56,15.10
2009,05,25,11,57,15.00
2009,05,25,11,58,15.10
2009,05,25,11,59,15.10
2009,05,25,12,00,15.20
2009,05,25,12,01,15.30
2009,05,25,12,02,15.30
2009,05,25,12,03,15.30
2009,05,25,12,04,15.30
2009,05,25,12,05,15.40
2009,05,25,12,06,15.40
2009,05,25,12,07,15.30
2009,05,25,12,08,15.30
2009,05,25,12,09,15.30
2009,05,25,12,10,15.30
2009,05,25,12,11,15.30
2009,05,25,12,12,15.30
2009,05,25,12,13,15.40
2009,05,25,12,14,15.40
2009,05,25,12,15,15.40
2009,05,25,12,16,15.50
2009,05,25,12,17,15.60
2009,05,25,12,18,15.50
2009,05,25,12,19,15.50
2009,05,25,12,20,15.50
2009,05,25,12,21,15.50
2009,05,25,12,22,15.50
2009,05,25,12,23,15.60
2009,05,25,12,24,15.60
2009,05,25,12,25,15.60
2009,05,25,12,26,15.70
2009,05,25,12,27,15.80
2009,05,25,12,28,15.80
2009,05,25,12,29,15.80
2009,05,25,12,30,15.80
2009,05,25,12,31,15.80
2009,05,25,12,32,15.90
2009,05,25,12,33,15.90
2009,05,25,12,34,16.00
2009,05,25,12,35,16.10
2009,05,25,12,36,16.20
2009,05,25,12,37,16.20
2009,05,25,12,38,16.20
2009,05,25,12,39,16.20
2009,05,25,12,40,16.20
2009,05,25,12,41,16.20
2009,05,25,12,42,16.20
2009,05,25,12,43,16.10
2009,05,25,12,44,16.00
2009,05,25,12,45,15.90
2009,05,25,12,46,15.90
2009,05,25,12,47,15.80
2009,05,25,12,48,15.70
2009,05,25,12,49,15.70
2009,05,25,12,50,15.80
2009,05,25,12,51,15.80
2009,05,25,12,52,15.90
2009,05,25,12,53,16.00
2009,05,25,12,54,16.10
2009,05,25,12,55,16.10
2009,05,25,12,56,16.10
2009,05,25,12,57,16.20
2009,05,25,12,58,16.30
2009,05,25,12,59,16.20
2009,05,25,13,00,16.30
2009,05,25,13,01,16.30
2009,05,25,13,02,16.40
2009,05,25,13,03,16.40
2009,05,25,13,04,16.40
2009,05,25,13,05,16.50
2009,05,25,13,06,16.60
2009,05,25,13,07,16.70
2009,05,25,13,08,16.70
2009,05,25,13,09,16.70
2009,05,25,13,10,16.70
2009,05,25,13,11,16.70
2009,05,25,13,12,16.80
2009,05,25,13,13,16.90
2009,05,25,13,14,16.90
2009,05,25,13,15,16.90
2009,05,25,13,16,16.90
2009,05,25,13,17,16.90
2009,05,25,13,18,16.90
2009,05,25,13,19,16.90
2009,05,25,13,20,17.00
2009,05,25,13,21,17.00
2009,05,25,13,22,17.10
2009,05,25,13,23,17.30
2009,05,25,13,24,17.30
2009,05,25,13,25,17.40
2009,05,25,13,26,17.50
2009,05,25,13,27,17.60
2009,05,25,13,28,17.70
2009,05,25,13,29,17.70
2009,05,25,13,30,17.70
2009,05,25,13,31,17.60
2009,05,25,13,32,17.70
2009,05,25,13,33,17.70
2009,05,25,13,34,17.70
2009,05,25,13,35,17.70
2009,05,25,13,36,17.70
2009,05,25,13,37,17.80
2009,05,25,13,38,17.80
2009,05,25,13,39,17.90
2009,05,25,13,40,17.90
2009,05,25,13,41,17.90
2009,05,25,13,42,17.90
2009,05,25,13,43,17.90
2009,05,25,13,44,17.90
2009,05,25,13,45,17.90
2009,05,25,13,46,18.00
2009,05,25,13,47,18.10
2009,05,25,13,48,18.20
2009,05,25,13,49,18.10
2009,05,25,13,50,18.00
2009,05,25,13,51,17.90
2009,05,25,13,52,17.90
2009,05,25,13,53,17.90
2009,05,25,13,54,18.10
2009,05,25,13,55,18.10
2009,05,25,13,56,18.10
2009,05,25,13,57,18.10
2009,05,25,13,58,18.20
2009,05,25,13,59,18.20
2009,05,25,14,00,18.20
2009,05,25,14,01,18.20
2009,05,25,14,02,18.20
2009,05,25,14,03,18.20
2009,05,25,14,04,18.20
2009,05,25,14,05,18.30
2009,05,25,14,06,18.30
2009,05,25,14,07,18.40
2009,05,25,14,08,18.30
2009,05,25,14,09,18.30
2009,05,25,14,10,18.30
2009,05,25,14,11,18.40
2009,05,25,14,12,18.40
2009,05,25,14,13,18.40
2009,05,25,14,14,18.40
2009,05,25,14,15,18.50
2009,05,25,14,16,18.50
2009,05,25,14,17,18.30
2009,05,25,14,18,18.30
2009,05,25,14,19,18.30
2009,05,25,14,20,18.30
2009,05,25,14,21,18.30
2009,05,25,14,22,18.30
2009,05,25,14,23,18.20
2009,05,25,14,24,18.30
2009,05,25,14,25,18.30
2009,05,25,14,26,18.40
2009,05,25,14,27,18.40
2009,05,25,14,28,18.50
2009,05,25,14,29,18.50
2009,05,25,14,30,18.60
2009,05,25,14,31,18.70
2009,05,25,14,32,18.60
2009,05,25,14,33,18.50
2009,05,25,14,34,18.50
2009,05,25,14,35,18.40
2009,05,25,14,36,18.40
2009,05,25,14,37,18.30
2009,05,25,14,38,18.30
2009,05,25,14,39,18.30
2009,05,25,14,40,18.30
2009,05,25,14,41,18.30
2009,05,25,14,42,18.30
2009,05,25,14,43,18.30
2009,05,25,14,44,18.30
2009,05,25,14,45,18.30
2009,05,25,14,46,18.40
2009,05,25,14,47,18.40
2009,05,25,14,48,18.40
2009,05,25,14,49,18.50
2009,05,25,14,50,18.50
2009,05,25,14,51,18.50
2009,05,25,14,52,18.40
2009,05,25,14,53,18.50
2009,05,25,14,54,18.60
2009,05,25,14,55,18.60
2009,05,25,14,56,18.60
2009,05,25,14,57,18.50
2009,05,25,14,58,18.40
2009,05,25,14,59,18.50
2009,05,25,15,00,18.50
2009,05,25,15,01,18.50
2009,05,25,15,02,18.60
2009,05,25,15,03,18.60
2009,05,25,15,04,18.60
2009,05,25,15,05,18.60
2009,05,25,15,06,18.60
2009,05,25,15,07,18.60
2009,05,25,15,08,18.60
2009,05,25,15,09,18.70
2009,05,25,15,10,18.80
2009,05,25,15,11,18.90
2009,05,25,15,12,19.00
2009,05,25,15,13,19.10
2009,05,25,15,14,19.30
2009,05,25,15,15,19.40
2009,05,25,15,16,19.40
2009,05,25,15,17,19.40
2009,05,25,15,18,19.30
2009,05,25,15,19,19.30
2009,05,25,15,20,19.30
2009,05,25,15,21,19.40
2009,05,25,15,22,19.40
2009,05,25,15,23,19.40
2009,05,25,15,24,19.30
2009,05,25,15,25,19.20
2009,05,25,15,26,19.10
2009,05,25,15,27,19.00
2009,05,25,15,28,18.90
2009,05,25,15,29,18.70
2009,05,25,15,30,18.60
2009,05,25,15,31,18.50
2009,05,25,15,32,18.40
2009,05,25,15,33,18.30
2009,05,25,15,34,18.20
2009,05,25,15,35,18.20
2009,05,25,15,36,18.10
2009,05,25,15,37,18.10
2009,05,25,15,38,18.10
2009,05,25,15,39,18.10
2009,05,25,15,40,18.10
2009,05,25,15,41,18.10
2009,05,25,15,42,18.20
2009,05,25,15,43,18.20
2009,05,25,15,44,18.20
2009,05,25,15,45,18.20
2009,05,25,15,46,18.30
2009,05,25,15,47,18.40
2009,05,25,15,48,18.40
2009,05,25,15,49,18.50
2009,05,25,15,50,18.50
2009,05,25,15,51,18.50
2009,05,25,15,52,18.60
2009,05,25,15,53,18.60
2009,05,25,15,54,18.70
2009,05,25,15,55,18.80
2009,05,25,15,56,18.80
2009,05,25,15,57,18.90
2009,05,25,15,58,18.90
2009,05,25,15,59,18.90
2009,05,25,16,00,18.80
2009,05,25,16,01,18.70
2009,05,25,16,02,18.70
2009,05,25,16,03,18.70
2009,05,25,16,04,18.60
2009,05,25,16,05,18.60
2009,05,25,16,06,18.50
2009,05,25,16,07,18.50
2009,05,25,16,08,18.50
2009,05,25,16,09,18.50
2009,05,25,16,10,18.50
2009,05,25,16,11,18.50
2009,05,25,16,12,18.50
2009,05,25,16,13,18.40
2009,05,25,16,14,18.40
2009,05,25,16,15,18.30
2009,05,25,16,16,18.30
2009,05,25,16,17,18.30
2009,05,25,16,18,18.40
2009,05,25,16,19,18.40
2009,05,25,16,20,18.50
2009,05,25,16,21,18.50
2009,05,25,16,22,18.50
2009,05,25,16,23,18.50
2009,05,25,16,24,18.50
2009,05,25,16,25,18.50
2009,05,25,16,26,18.40
2009,05,25,16,27,18.40
2009,05,25,16,28,18.50
2009,05,25,16,29,18.50
2009,05,25,16,30,18.60
2009,05,25,16,31,18.60
2009,05,25,16,32,18.50
2009,05,25,16,33,18.60
2009,05,25,16,34,18.60
2009,05,25,16,35,18.60
2009,05,25,16,36,18.60
2009,05,25,16,37,18.60
2009,05,25,16,38,18.50
2009,05,25,16,39,18.50
2009,05,25,16,40,18.40
2009,05,25,16,41,18.30
2009,05,25,16,42,18.30
2009,05,25,16,43,18.20
2009,05,25,16,44,18.20
2009,05,25,16,45,18.10
2009,05,25,16,46,18.00
2009,05,25,16,47,17.90
2009,05,25,16,48,17.90
2009,05,25,16,49,17.90
2009,05,25,16,50,17.90
2009,05,25,16,51,17.90
2009,05,25,16,52,17.90
2009,05,25,16,53,17.90
2009,05,25,16,54,17.90
2009,05,25,16,55,17.90
2009,05,25,16,56,17.90
2009,05,25,16,57,17.90
2009,05,25,16,58,17.90
2009,05,25,16,59,17.90
2009,05,25,17,00,17.90
2009,05,25,17,01,18.00
2009,05,25,17,02,18.10
2009,05,25,17,03,18.10
2009,05,25,17,04,18.10
2009,05,25,17,05,18.10
2009,05,25,17,06,18.10
2009,05,25,17,07,18.10
2009,05,25,17,08,18.20
2009,05,25,17,09,18.10
2009,05,25,17,10,18.10
2009,05,25,17,11,18.10
2009,05,25,17,12,18.20
2009,05,25,17,13,18.20
2009,05,25,17,14,18.20
2009,05,25,17,15,18.20
2009,05,25,17,16,18.20
2009,05,25,17,17,18.20
2009,05,25,17,18,18.20
2009,05,25,17,19,18.10
2009,05,25,17,20,18.10
2009,05,25,17,21,18.10
2009,05,25,17,22,18.10
2009,05,25,17,23,18.10
2009,05,25,17,24,17.90
2009,05,25,17,25,17.90
2009,05,25,17,26,17.80
2009,05,25,17,27,17.80
2009,05,25,17,28,17.80
2009,05,25,17,29,17.80
2009,05,25,17,30,17.70
2009,05,25,17,31,17.70
2009,05,25,17,32,17.60
2009,05,25,17,33,17.50
2009,05,25,17,34,17.50
2009,05,25,17,35,17.50
2009,05,25,17,36,17.50
2009,05,25,17,37,17.50
2009,05,25,17,38,17.50
2009,05,25,17,39,17.50
2009,05,25,17,40,17.50